Waarnemingen

Advertentie
Mijn weer
UFS Deutsche Bucht, Duitsland (10007): temperatuur & dauwpunt: 18.02.2017 16:00:00 - 24.02.2017 16:00:00 (CET)UFS Deutsche Bucht, Duitsland (10007): windsnelheid & windstoten: 18.02.2017 16:00:00 - 24.02.2017 16:00:00 (CET)UFS Deutsche Bucht, Duitsland (10007): windrichting: 18.02.2017 16:00:00 - 24.02.2017 16:00:00 (CET)UFS Deutsche Bucht, Duitsland (10007): luchtdruk: 18.02.2017 16:00:00 - 24.02.2017 16:00:00 (CET)UFS Deutsche Bucht, Duitsland (10007): zicht: 18.02.2017 16:00:00 - 24.02.2017 16:00:00 (CET)UFS Deutsche Bucht, Duitsland (10007): Zonneschijnduur: 18.02.2017 16:00:00 - 24.02.2017 16:00:00 (CET)
Datum & Tijd tt [°C] td [°C] ff [km/u] ff [kn] fx [km/u] fx [kn] dd ppp [hPa] vv [km] sd [min]
24.02.2017 16:00:00 - - - - - - - - - -
24.02.2017 15:00:00 4,9 2,4 29 16 - - WNW 1010,9 10 60
24.02.2017 14:00:00 5,1 2,4 29 16 - - WNW 1010,4 10 60
24.02.2017 13:00:00 4,6 1,6 29 16 - - W 1009,5 10 60
24.02.2017 12:00:00 4,5 0,7 29 16 - - W 1008,9 - 60
24.02.2017 11:00:00 4,3 1,0 29 16 - - W 1008,0 5 60
24.02.2017 10:00:00 4,9 0,3 25 14 - - WNW 1006,7 10 30
24.02.2017 09:00:00 4,7 -0,1 36 19 47 25 NW 1005,4 10 36
24.02.2017 08:00:00 4,6 1,2 36 19 50 27 NNW 1003,7 10 0
24.02.2017 07:00:00 4,5 0,1 47 25 - - NNW 1001,7 10 0
24.02.2017 06:00:00 4,6 0,8 47 25 61 33 NNW 999,7 10 0
24.02.2017 05:00:00 4,1 1,7 43 23 65 35 NNW 997,6 10 0
24.02.2017 04:00:00 4,2 1,1 40 21 - - NW 995,6 9 0
24.02.2017 03:00:00 4,6 1,1 43 23 61 33 NW 993,5 10 0
24.02.2017 02:00:00 4,2 1,7 50 27 72 39 NNW 991,6 10 0
24.02.2017 01:00:00 3,8 1,7 58 31 - - NNW 988,9 10 0
24.02.2017 00:00:00 3,2 1,8 65 35 79 43 NNW 985,8 10 0
23.02.2017 23:00:00 - - - - - - - - - -
23.02.2017 22:00:00 5,2 5,0 32 18 - - W 980,4 9 0
23.02.2017 21:00:00 5,0 4,7 36 19 - - W 979,0 10 0
23.02.2017 20:00:00 4,9 4,5 25 14 47 25 ZW 978,0 10 0
23.02.2017 19:00:00 5,0 4,4 36 19 - - ZW 978,5 7 0
23.02.2017 18:00:00 6,0 4,2 50 27 68 37 ZW 979,1 10 0
23.02.2017 17:00:00 6,4 4,6 47 25 68 37 ZW 980,2 10 0
23.02.2017 16:00:00 6,3 5,1 65 35 - - ZW 980,8 4,0 0
23.02.2017 15:00:00 6,6 5,3 54 29 79 43 ZZW 981,4 4,2 0
23.02.2017 14:00:00 6,5 6,5 43 23 50 27 Z 983,2 4,2 0
23.02.2017 13:00:00 5,5 5,5 36 19 - - Z 986,0 7 0
23.02.2017 12:00:00 3,5 3,5 32 18 - - ZO 989,1 9 0
23.02.2017 11:00:00 3,0 2,5 29 16 - - ZO 991,2 5 0
23.02.2017 10:00:00 3,1 2,3 25 14 - - Z 993,4 8 0
23.02.2017 09:00:00 4,2 3,6 29 16 - - ZZW 994,9 7 0
23.02.2017 08:00:00 4,8 4,8 22 12 - - ZZW 996,0 7 0
23.02.2017 07:00:00 5,1 4,5 22 12 - - ZW 996,7 10 0
23.02.2017 06:00:00 5,5 4,5 29 16 - - WZW 997,3 10 0
23.02.2017 05:00:00 5,4 4,7 29 16 - - WZW 997,6 9 0
23.02.2017 04:00:00 5,6 4,7 32 18 - - WZW 997,9 9 0
23.02.2017 03:00:00 5,8 4,6 40 21 58 31 W 998,1 10 0
23.02.2017 02:00:00 5,9 4,5 43 23 65 35 W 998,1 10 0
23.02.2017 01:00:00 6,2 4,5 50 27 - - W 997,8 10 0
23.02.2017 00:00:00 6,1 4,5 47 25 61 33 W 997,5 10 0
22.02.2017 23:00:00 6,1 4,4 50 27 65 35 WZW 997,7 10 0
22.02.2017 22:00:00 6,2 4,2 47 25 - - W 997,4 10 0
22.02.2017 21:00:00 6,2 4,1 50 27 65 35 W 997,4 10 0
22.02.2017 20:00:00 6,2 4,1 50 27 68 37 W 997,1 10 0
22.02.2017 19:00:00 6,2 4,2 50 27 - - W 997,0 10 0
22.02.2017 18:00:00 6,2 4,3 54 29 65 35 W 997,0 10 0
22.02.2017 17:00:00 6,2 4,2 50 27 65 35 W 997,1 10 0
22.02.2017 16:00:00 6,1 4,0 47 25 - - WZW 997,4 10 0
22.02.2017 15:00:00 6,0 3,8 47 25 58 31 WZW 997,6 10 0
22.02.2017 14:00:00 6,0 4,0 43 23 54 29 WZW 997,8 10 0
22.02.2017 13:00:00 6,1 4,6 43 23 - - WZW 998,1 10 12
22.02.2017 12:00:00 6,2 3,8 43 23 54 29 W 998,2 9 30
22.02.2017 11:00:00 6,3 4,2 43 23 54 29 W 998,0 0,6 30
22.02.2017 10:00:00 6,4 4,8 47 25 - - W 997,5 10 36
22.02.2017 09:00:00 7,0 5,0 47 25 58 31 WZW 996,6 10 6
22.02.2017 08:00:00 7,0 5,9 50 27 68 37 W 996,4 10 0
22.02.2017 07:00:00 6,8 6,8 54 29 - - WZW 996,0 2,0 0
22.02.2017 06:00:00 6,7 6,8 58 31 72 39 WZW 996,1 3,5 0
22.02.2017 05:00:00 6,9 6,6 58 31 76 41 WZW 996,5 3,4 0
22.02.2017 04:00:00 7,0 6,7 58 31 - - WZW 997,0 3,1 0
22.02.2017 03:00:00 7,2 6,9 58 31 68 37 ZW 997,9 3,1 0
22.02.2017 02:00:00 6,6 6,6 54 29 68 37 ZW 999,2 1,4 0
22.02.2017 01:00:00 6,2 6,2 50 27 - - ZZW 1000,6 1,7 0
22.02.2017 00:00:00 6,2 5,8 47 25 65 35 ZZW 1002,5 5 0
21.02.2017 23:00:00 5,6 4,7 40 21 47 25 ZZW 1004,5 10 0
21.02.2017 22:00:00 5,2 4,8 36 19 - - ZZW 1006,3 9 0
21.02.2017 21:00:00 4,7 4,6 32 18 - - ZZW 1007,8 9 0
21.02.2017 20:00:00 4,8 4,7 25 14 - - ZZW 1008,7 8 0
21.02.2017 19:00:00 5,0 4,8 22 12 - - ZW 1009,7 8 0
21.02.2017 18:00:00 5,2 4,8 25 14 - - ZW 1010,6 10 0
21.02.2017 17:00:00 5,7 4,8 29 16 - - WZW 1010,5 10 18
21.02.2017 16:00:00 5,7 5,0 32 18 - - WZW 1011,1 10 60
21.02.2017 15:00:00 5,7 5,0 36 19 - - WZW 1011,1 8 60
21.02.2017 14:00:00 5,7 4,9 32 18 - - WZW 1010,9 1,8 60
21.02.2017 13:00:00 5,7 5,1 32 18 - - W 1010,7 0,4 60
21.02.2017 12:00:00 5,9 5,0 32 18 - - W 1010,5 9 60
21.02.2017 11:00:00 6,1 4,9 36 19 47 25 W 1010,1 10 54
21.02.2017 10:00:00 5,9 5,0 36 19 - - W 1009,3 0,3 60
21.02.2017 09:00:00 6,0 5,0 32 18 - - W 1008,6 10 30
21.02.2017 08:00:00 5,9 5,3 32 18 - - W 1008,4 9 0
21.02.2017 07:00:00 5,8 5,2 29 16 - - W 1007,7 9 0
21.02.2017 06:00:00 6,0 5,5 29 16 - - W 1007,5 8 0
21.02.2017 05:00:00 6,0 5,5 36 19 - - W 1007,3 9 0
21.02.2017 04:00:00 5,9 5,6 32 18 - - W 1007,1 10 0
21.02.2017 03:00:00 5,8 5,8 29 16 - - WZW 1007,5 7 0
21.02.2017 02:00:00 6,0 5,8 29 16 - - W 1007,9 7 0
21.02.2017 01:00:00 6,2 5,9 29 16 - - WZW 1008,0 8 0
21.02.2017 00:00:00 6,5 6,1 36 19 50 27 W 1007,6 9 0
20.02.2017 23:00:00 6,5 6,2 40 21 54 29 W 1007,3 8 0
20.02.2017 22:00:00 6,4 6,3 36 19 - - W 1007,4 6 0
20.02.2017 21:00:00 6,6 6,6 36 19 50 27 W 1006,7 5 0
20.02.2017 20:00:00 6,9 6,9 43 23 54 29 W 1006,5 5 0
20.02.2017 19:00:00 7,1 6,9 47 25 - - W 1005,8 4,8 0
20.02.2017 18:00:00 7,2 7,0 47 25 61 33 WZW 1005,2 3,8 0
20.02.2017 17:00:00 6,6 6,6 43 23 58 31 WZW 1005,6 6 0
20.02.2017 16:00:00 6,4 6,4 43 23 - - WZW 1006,1 6 0
20.02.2017 15:00:00 5,7 5,7 40 21 54 29 ZW 1006,4 0,7 0
20.02.2017 14:00:00 6,1 6,1 43 23 54 29 WZW 1007,1 0,5 0
20.02.2017 13:00:00 6,1 6,1 43 23 - - WZW 1007,6 1,4 0
20.02.2017 12:00:00 5,6 5,6 36 19 54 29 ZW 1008,1 2,4 0
20.02.2017 11:00:00 5,6 5,6 43 23 58 31 ZW 1008,6 5 0
20.02.2017 10:00:00 5,6 5,6 47 25 - - ZW 1009,1 5 0
20.02.2017 09:00:00 5,6 5,6 47 25 61 33 ZW 1009,6 3,2 0
20.02.2017 08:00:00 5,6 5,6 43 23 58 31 ZW 1009,9 3,0 0
20.02.2017 07:00:00 5,5 5,5 47 25 - - ZW 1010,4 5 0
20.02.2017 06:00:00 5,6 5,5 43 23 50 27 ZW 1011,4 2,4 0
20.02.2017 05:00:00 5,5 5,4 40 21 47 25 ZW 1012,1 4,3 0
20.02.2017 04:00:00 5,2 5,2 36 19 - - ZW 1012,8 4,2 0
20.02.2017 03:00:00 5,1 5,1 36 19 47 25 ZW 1014,0 5 0
20.02.2017 02:00:00 5,0 5,1 36 19 - - ZW 1014,8 7 0
20.02.2017 01:00:00 5,1 5,1 32 18 - - ZW 1015,4 9 0
20.02.2017 00:00:00 4,6 4,6 29 16 - - ZW 1016,0 9 0
19.02.2017 23:00:00 5,4 5,4 25 14 - - WZW 1016,6 10 0
19.02.2017 22:00:00 - - - - - - - - - -
19.02.2017 21:00:00 5,5 5,4 18 10 - - W 1016,9 10 0
19.02.2017 20:00:00 5,7 5,7 29 16 - - W 1017,1 10 0
19.02.2017 19:00:00 5,3 5,3 25 14 - - WZW 1016,4 2,8 0
19.02.2017 18:00:00 5,4 5,4 22 12 - - WZW 1016,1 6 0
19.02.2017 17:00:00 5,6 5,5 25 14 - - W 1015,9 9 0
19.02.2017 16:00:00 5,6 5,6 25 14 - - WZW 1015,8 8 24
19.02.2017 15:00:00 5,7 5,7 25 14 - - WZW 1015,5 6 60
19.02.2017 14:00:00 5,7 5,6 25 14 - - W 1015,6 3,8 12
19.02.2017 13:00:00 5,6 5,6 29 16 - - W 1016,0 4,0 0
19.02.2017 12:00:00 5,5 5,5 25 14 - - WZW 1016,2 4,1 0
19.02.2017 11:00:00 5,7 5,6 32 18 - - WZW 1016,2 3,8 0
19.02.2017 10:00:00 5,3 5,3 32 18 - - WZW 1016,0 4,0 0
19.02.2017 09:00:00 5,0 5,0 36 19 50 27 ZW 1015,8 3,3 0
19.02.2017 08:00:00 5,0 5,0 40 21 50 27 ZW 1015,6 3,2 0
19.02.2017 07:00:00 5,0 4,9 40 21 - - ZW 1015,6 2,2 0
19.02.2017 06:00:00 4,9 4,7 43 23 50 27 ZW 1016,0 2,4 0
19.02.2017 05:00:00 4,8 4,6 40 21 47 25 ZW 1016,7 2,5 0
19.02.2017 04:00:00 4,7 4,7 40 21 - - ZW 1017,7 2,4 0
19.02.2017 03:00:00 4,2 4,2 36 19 47 25 ZW 1018,1 0,4 0
19.02.2017 02:00:00 4,4 4,4 40 21 54 29 ZW 1019,1 0,5 0
19.02.2017 01:00:00 4,3 4,3 43 23 - - ZW 1020,4 0,6 0
19.02.2017 00:00:00 4,0 4,0 40 21 50 27 ZW 1020,8 0,6 0
18.02.2017 23:00:00 3,8 3,8 40 21 47 25 ZW 1021,4 1,1 0
18.02.2017 22:00:00 4,0 4,0 36 19 - - ZZW 1021,5 1,6 0
18.02.2017 21:00:00 3,6 3,6 40 21 47 25 ZW 1022,2 0,8 0
18.02.2017 20:00:00 3,5 3,5 40 21 47 25 ZW 1022,9 2,8 0
18.02.2017 19:00:00 3,8 3,8 36 19 - - ZZW 1023,1 4,2 0
18.02.2017 18:00:00 3,5 3,5 32 18 - - ZW 1023,7 2,5 0
18.02.2017 17:00:00 3,4 3,4 36 19 - - ZW 1023,7 0,6 0
18.02.2017 16:00:00 3,1 3,1 32 18 - - ZW 1024,1 2,0 0

tt = temperatuur
td = dauwpunt
ff = windsnelheid
fx = windstoten
dd = windrichting
ppp = luchtdruk
vv = zicht
sd = Zonneschijnduur

Weerstations in de omgeving